This is the latest recevied weather packets stored in our database for station/object DB0MI. If no packets are shown the sender has not sent any weather packets the latest 10 day(s).
| Time | Temp. | Humidity | Pressure | Rain* | Wind** | Luminosity | Snow |
|---|---|---|---|---|---|---|---|
| 1777558320 | 16.67° C | 28% | 1025.7 hPa | 0 mm | - | - | - |
| 1777557720 | 16.67° C | 28% | 1025.7 hPa | 0 mm | - | - | - |
| 1777557121 | 16.11° C | 28% | 1025.8 hPa | 0 mm | - | - | - |
| 1777556521 | 16.11° C | 28% | 1025.8 hPa | 0 mm | - | - | - |
| 1777555921 | 16.11° C | 28% | 1025.9 hPa | 0 mm | - | - | - |
| 1777555321 | 15.56° C | 28% | 1026 hPa | 0 mm | - | - | - |
| 1777554721 | 15.56° C | 28% | 1026 hPa | 0 mm | - | - | - |
| 1777554121 | 15.56° C | 28% | 1026.3 hPa | 0 mm | - | - | - |
| 1777553521 | 15° C | 29% | 1026.3 hPa | 0 mm | - | - | - |
| 1777552921 | 15° C | 28% | 1026.2 hPa | 0 mm | - | - | - |
| 1777552321 | 15° C | 29% | 1026.3 hPa | 0 mm | - | - | - |
| 1777551721 | 15° C | 29% | 1026.3 hPa | 0 mm | - | - | - |
| 1777551121 | 15.56° C | 29% | 1026.3 hPa | 0 mm | - | - | - |
| 1777550521 | 15.56° C | 28% | 1026.4 hPa | 0 mm | - | - | - |
| 1777549921 | 15.56° C | 28% | 1026.4 hPa | 0 mm | - | - | - |
| 1777549321 | 15.56° C | 28% | 1026.4 hPa | 0 mm | - | - | - |
| 1777548721 | 16.11° C | 28% | 1026.5 hPa | 0 mm | - | - | - |
| 1777548121 | 16.11° C | 28% | 1026.6 hPa | 0 mm | - | - | - |
| 1777547521 | 16.67° C | 27% | 1026.7 hPa | 0 mm | - | - | - |
| 1777546921 | 17.22° C | 26% | 1026.6 hPa | 0 mm | - | - | - |
| 1777546321 | 17.78° C | 27% | 1026.7 hPa | 0 mm | - | - | - |
| 1777545721 | 18.33° C | 27% | 1026.7 hPa | 0 mm | - | - | - |
| 1777545121 | 17.78° C | 28% | 1026.6 hPa | 0 mm | - | - | - |
| 1777544521 | 17.78° C | 28% | 1026.5 hPa | 0 mm | - | - | - |
| 1777543921 | 17.78° C | 29% | 1026.4 hPa | 0 mm | - | - | - |
* Rain latest hour (hover to see other rain measurements)
** Current wind speed in m/s (hover to see current wind gust speed)